Regional Weather Roundup
Issued by NWS Upton, NY

Current Version | Previous Version | Graphics & Text | Print | Product List | Glossary Off
Versions: 1 2 3 4 5 6 7 8 9 10 11 12 13 14 15 16 17 18 19 20 21 22 23 24 25 26 27 28 29 30 31 32 33 34 35 36 37 38 39 40 41 42 43 44 45 46 47 48 49 50

000
ASUS41 KOKX 222305
RWROKX

REGIONAL WEATHER ROUNDUP
NATIONAL WEATHER SERVICE NEW YORK NY
700 PM EDT TUE JUL 22 2014

NOTE: "FAIR" INDICATES FEW OR NO CLOUDS BELOW 12,000 FEET WITH NO
SIGNIFICANT WEATHER AND/OR OBSTRUCTIONS TO VISIBILITY.

NYZ071-072-176-178-NJZ106-104-230000-
NEW YORK CITY METRO AREA


CITY           SKY/WX    TMP DP  RH WIND       PRES   REMARKS
CENTRAL PARK   MOSUNNY   81  66  60 S5        30.09S
LAGUARDIA APRT MOSUNNY   81  66  60 S13       30.06S
KENNEDY INTL   MOSUNNY   77  66  68 S18       30.08S
NEWARK/LIBERTY MOSUNNY   87  67  51 SW12      30.05S HX  90
BRNX BOT. GARD   N/A     79  66  65 SE6       30.07R
TETERBORO      SUNNY     86  67  52 S10       30.04S
$$

NYZ177-179-078>081-230000-
LONG ISLAND NEW YORK

CITY           SKY/WX    TMP DP  RH WIND       PRES   REMARKS
FARMINGDALE    SUNNY     76  66  71 SW10      30.09S
ISLIP          SUNNY     77  65  66 SW13      30.08S
SHIRLEY        SUNNY     76  66  71 SW8G17    30.10S
WESTHAMPTON    SUNNY     74  64  71 SW7G17    30.11S
MONTAUK POINT    N/A     75  66  73 SW7       30.09F
$$

NYZ052-065-067-230000-
HUDSON VALLEY

CITY           SKY/WX    TMP DP  RH WIND       PRES   REMARKS
WHITE PLAINS   MOSUNNY   79  65  62 S7        30.08R
NEWBURGH       MOSUNNY   84  70  61 W9        30.07R
MONTGOMERY     PTSUNNY   84  69  60 SW12      30.05R
POUGHKEEPSIE   MOSUNNY   86  69  56 S7        30.03R HX  90
ALBANY         MOSUNNY   86  69  56 S13       30.00S HX  90
$$

NJZ001-105-106-008-010-013-015-019>022-104-230000-
NEW JERSEY

CITY           SKY/WX    TMP DP  RH WIND       PRES   REMARKS
NEWARK/LIBERTY MOSUNNY   87  67  51 SW12      30.05S HX  90
TETERBORO      SUNNY     86  67  52 S10       30.04S
CALDWELL       SUNNY     85  66  53 SW5       30.06S
MORRISTOWN     MOSUNNY   86  68  54 SW9       30.06S
SOMERVILLE     SUNNY     84  69  60 S5        30.04S
LINDEN         FAIR      88  67  49 W6        30.08F HX  90
SUSSEX         SUNNY     85  69  58 VRB3      30.07S
ANDOVER          N/A     82  69  64 SW6       30.08S
TRENTON        SUNNY     84  66  54 SW12      30.07R
MILLVILLE      MOSUNNY   78  65  63 S7        30.11S
ATLANTIC CITY  SUNNY     77  62  59 S10       30.11F
WRIGHTSTOWN    SUNNY     82  66  58 SW12      30.06F
TOMS RIVER     SUNNY     81  64  57 S9        30.10S
BELMAR         SUNNY     82  64  54 S10       30.09R
$$

PAZ047>061-062-071-230000-
EASTERN PENNSYLVANIA

CITY           SKY/WX    TMP DP  RH WIND       PRES   REMARKS
PHILADELPHIA   MOSUNNY   84  62  47 SW13      30.09S
ALLENTOWN      SUNNY     83  69  62 SW10      30.08R
SCRANTON       MOSUNNY   85  65  51 SW8       30.07S
$$

CTZ002-004>006-009-010-012-RIZ004-006-007-MAZ004-011-015-230000-
SOUTHERN NEW ENGLAND
 IN CT

CITY           SKY/WX    TMP DP  RH WIND       PRES   REMARKS
BRADLEY INTL   MOSUNNY   86  67  52 SW9       30.02S
HARTFORD       SUNNY     84  66  54 S14       30.02S
DANBURY        SUNNY     81  67  62 S9        30.08R
WTRBRY/OXFORD  NOT AVBL
BRIDGEPORT     SUNNY     80  69  69 SW13      30.07R
MERIDEN        SUNNY     82  68  62 S13       30.05S
NEW HAVEN      SUNNY     81  68  64 S9        30.07R
CHESTER        FAIR      77  68  73 SW8       30.09F
GROTON         SUNNY     72  67  84 SW9       30.06F
WILLIMANTIC    SUNNY     82  67  60 S12       30.05S

 IN RI

CITY           SKY/WX    TMP DP  RH WIND       PRES   REMARKS
PROVIDENCE     MOSUNNY   81  67  62 SW10      30.05F
BLOCK ISLAND   SUNNY     73  64  73 SW13      30.08F
WESTERLY       SUNNY     77  66  68 SW9       30.08S

 IN MA

CITY           SKY/WX    TMP DP  RH WIND       PRES   REMARKS
BOSTON         MOSUNNY   84  68  58 S10       29.99F
WORCESTER      SUNNY     81  65  58 SW9       30.06F
WESTFIELD      MOSUNNY   85  67  54 S9        30.02S
PROVINCETOWN   SUNNY     75  66  73 S14       30.04F
NANTUCKET      SUNNY     69  64  84 SW13      30.08F
$$

ANZ330-335-338-340-345-350-353-355-230000-
COASTAL MARINE OBSERVATIONS


STATION/POSITION TIME  SKY/WX   TEMP    WIND        PRES    VSBY  WAVE
                                AIR SEA DIR/SP/G                  HT/PER
                 (UTC)          (F)     (DEG/KT/KT) (MB)    (MI)  (FT/S)
NY HARB ENTRANCE NOT AVBL
4S FIRE IS       NOT AVBL
23SW MTP         2300            73 71              1018.4          3/ 4
HUDSON CANYON    2300            74 74  220/ 12/ 14 1019.8          2/ 7
EXECUTION ROCKS  2300            79 71  190/ 16/ 21   N/A
WESTERN LI SOUND 2300            78     190/ 14/ 17   N/A           1/ 2
CENTRAL LI SOUND 2200            76 74  210/ 12/ 14   N/A           1/ 2
EASTERN LI SOUND 2200            76 67  200/  8/ 10   N/A
ROBBINS REEF     2300            76     170/ 16/ 18   N/A
$$


>>>>>>>>>>>>>>>>>>>>>>>>>>>> KEY <<<<<<<<<<<<<<<<<<<<<<<<<<<
>                                                          <
>     SKY/WX - SKY CONDITION/PRESENT WEATHER               <
>     TMP    - TEMPERATURE IN FAHRENHEIT                   <
>     DP     - DEWPOINT IN FAHRENHEIT                      <
>     RH     - RELATIVE HUMIDITY IN PERCENT                <
>     WIND   - DIRECTION AND SPEED IN MPH                  <
>     PRES   - MEAN SEA LEVEL PRESSURE IN INCHES OF HG     <
>     WCI    - WIND CHILL INDEX                            <
>     VSB    - VISIBILITY IN MILES                         <
>     HX     - HEAT INDEX                                  <
>     TC     - TEMPERATURE IN CELSIUS                      <
>     VRB    - VARIABLE WIND DIRECTION                     <
>                                                          <
>>>>>>>>>>>>>>>>>>>>>>>>>>>> KEY <<<<<<<<<<<<<<<<<<<<<<<<<<<





USA.gov is the U.S. government's official web portal to all federal, state and local government web resources and services.